Time,TemperatureF,DewpointF,PressureIn,WindDirection,WindDirectionDegrees,WindSpeedMPH,WindSpeedGustMPH,Humidity,HourlyPrecipIn,Conditions,Clouds,dailyrainin,SoftwareType,DateUTC
2013-01-01 00:03:00,57.0,54.0,30.19,South,189,0.0,0.0,91,0.00,,,0.00,,2013-01-01 05:03:00,
2013-01-01 00:12:00,57.0,54.0,30.19,South,189,0.0,0.0,91,0.00,,,0.00,,2013-01-01 05:12:00,
2013-01-01 00:22:00,57.0,54.0,30.19,South,189,0.0,0.0,91,0.00,,,0.00,,2013-01-01 05:22:00,
2013-01-01 00:33:00,56.0,53.0,30.19,South,189,0.0,0.0,91,0.00,,,0.00,,2013-01-01 05:33:00,
2013-01-01 00:42:00,56.0,53.0,30.19,South,189,0.0,0.0,91,0.00,,,0.00,,2013-01-01 05:42:00,
2013-01-01 00:53:00,56.0,54.0,30.18,East,92,0.0,0.0,92,0.00,,,0.00,,2013-01-01 05:53:00,
2013-01-01 01:02:00,57.0,55.0,30.17,ESE,115,0.0,5.0,93,0.00,,,0.00,,2013-01-01 06:02:00,
2013-01-01 01:12:00,57.0,55.0,30.17,ESE,115,0.0,5.0,93,0.00,,,0.00,,2013-01-01 06:12:00,
2013-01-01 01:22:00,58.0,56.0,30.17,ESE,103,1.0,3.0,93,0.00,,,0.00,,2013-01-01 06:22:00,
2013-01-01 01:32:00,58.0,56.0,30.18,East,97,0.0,2.0,92,0.00,,,0.00,,2013-01-01 06:32:00,
2013-01-01 01:42:00,58.0,56.0,30.18,East,97,0.0,2.0,92,0.00,,,0.00,,2013-01-01 06:42:00,
2013-01-01 01:52:00,58.0,55.0,30.18,East,97,0.0,2.0,91,0.00,,,0.00,,2013-01-01 06:52:00,
2013-01-01 02:02:00,58.0,55.0,30.17,East,97,0.0,0.0,91,0.00,,,0.00,,2013-01-01 07:02:00,
2013-01-01 02:12:00,58.0,56.0,30.17,East,97,0.0,0.0,92,0.00,,,0.00,,2013-01-01 07:12:00,
2013-01-01 02:22:00,58.0,56.0,30.17,East,97,0.0,0.0,92,0.00,,,0.00,,2013-01-01 07:22:00,
2013-01-01 02:32:00,58.0,56.0,30.16,East,97,0.0,2.0,92,0.00,,,0.00,,2013-01-01 07:32:00,
2013-01-01 02:42:00,58.0,56.0,30.16,East,97,0.0,2.0,92,0.00,,,0.00,,2013-01-01 07:42:00,
2013-01-01 02:53:00,58.0,56.0,30.16,ESE,114,0.0,3.0,92,0.00,,,0.00,,2013-01-01 07:53:00,
2013-01-01 03:02:00,58.0,56.0,30.15,SE,124,1.0,2.0,92,0.00,,,0.00,,2013-01-01 08:02:00,
2013-01-01 03:12:00,58.0,56.0,30.15,SE,124,1.0,2.0,92,0.00,,,0.00,,2013-01-01 08:12:00,
2013-01-01 03:22:00,58.0,56.0,30.15,SE,128,0.0,2.0,92,0.00,,,0.00,,2013-01-01 08:22:00,
2013-01-01 03:32:00,57.0,55.0,30.14,SE,128,0.0,2.0,92,0.00,,,0.00,,2013-01-01 08:32:00,
2013-01-01 03:42:00,57.0,55.0,30.14,SE,128,0.0,0.0,92,0.00,,,0.00,,2013-01-01 08:42:00,
2013-01-01 03:53:00,57.0,55.0,30.14,SE,128,0.0,0.0,92,0.00,,,0.00,,2013-01-01 08:53:00,
2013-01-01 04:02:00,56.0,54.0,30.13,SE,128,0.0,2.0,92,0.00,,,0.00,,2013-01-01 09:02:00,
2013-01-01 04:12:00,56.0,54.0,30.13,SE,128,0.0,2.0,92,0.00,,,0.00,,2013-01-01 09:12:00,
2013-01-01 04:22:00,56.0,54.0,30.13,SE,128,0.0,2.0,92,0.00,,,0.00,,2013-01-01 09:22:00,
2013-01-01 04:32:00,56.0,54.0,30.13,SE,128,0.0,2.0,92,0.01,,,0.01,,2013-01-01 09:32:00,
2013-01-01 04:42:00,56.0,54.0,30.13,SE,128,0.0,2.0,92,0.01,,,0.01,,2013-01-01 09:42:00,
2013-01-01 04:52:00,56.0,54.0,30.12,SE,128,0.0,2.0,93,0.01,,,0.01,,2013-01-01 09:52:00,
2013-01-01 05:02:00,56.0,54.0,30.11,SE,128,0.0,1.0,93,0.01,,,0.01,,2013-01-01 10:02:00,
2013-01-01 05:12:00,56.0,54.0,30.11,SE,128,0.0,2.0,93,0.01,,,0.01,,2013-01-01 10:12:00,
2013-01-01 05:22:00,56.0,54.0,30.11,SE,128,0.0,2.0,93,0.01,,,0.01,,2013-01-01 10:22:00,
2013-01-01 05:33:00,55.0,53.0,30.11,SE,128,0.0,0.0,93,0.00,,,0.01,,2013-01-01 10:33:00,
2013-01-01 05:42:00,55.0,53.0,30.11,SE,128,0.0,0.0,93,0.00,,,0.01,,2013-01-01 10:42:00,
2013-01-01 05:52:00,55.0,53.0,30.11,SE,128,0.0,0.0,93,0.00,,,0.01,,2013-01-01 10:52:00,
2013-01-01 06:02:00,55.0,53.0,30.11,SE,128,0.0,0.0,93,0.00,,,0.01,,2013-01-01 11:02:00,
2013-01-01 06:12:00,55.0,53.0,30.11,SE,128,0.0,0.0,93,0.00,,,0.01,,2013-01-01 11:12:00,
2013-01-01 06:23:00,55.0,53.0,30.11,SE,128,0.0,0.0,93,0.00,,,0.01,,2013-01-01 11:23:00,
2013-01-01 06:33:00,55.0,53.0,30.11,SE,128,0.0,0.0,94,0.00,,,0.01,,2013-01-01 11:33:00,
2013-01-01 06:43:00,55.0,53.0,30.11,SE,128,0.0,0.0,94,0.00,,,0.01,,2013-01-01 11:43:00,
2013-01-01 06:53:00,55.0,53.0,30.11,SE,128,0.0,0.0,94,0.00,,,0.01,,2013-01-01 11:53:00,
2013-01-01 07:03:00,55.0,53.0,30.11,SE,128,0.0,0.0,93,0.00,,,0.01,,2013-01-01 12:03:00,
2013-01-01 07:12:00,55.0,53.0,30.11,SE,128,0.0,0.0,93,0.00,,,0.01,,2013-01-01 12:12:00,
2013-01-01 07:22:00,54.0,52.0,30.11,SE,128,0.0,1.0,94,0.00,,,0.01,,2013-01-01 12:22:00,
2013-01-01 07:33:00,54.0,52.0,30.12,SE,128,0.0,0.0,94,0.00,,,0.01,,2013-01-01 12:33:00,
2013-01-01 07:43:00,54.0,52.0,30.12,SE,128,0.0,0.0,94,0.00,,,0.01,,2013-01-01 12:43:00,
2013-01-01 07:53:00,54.0,52.0,30.13,SE,128,0.0,0.0,94,0.00,,,0.01,,2013-01-01 12:53:00,
2013-01-01 08:03:00,54.0,52.0,30.13,SSE,149,0.0,1.0,94,0.00,,,0.01,,2013-01-01 13:03:00,
2013-01-01 08:12:00,54.0,52.0,30.13,SSE,149,0.0,1.0,94,0.00,,,0.01,,2013-01-01 13:12:00,
2013-01-01 08:22:00,55.0,53.0,30.13,SSE,149,0.0,0.0,94,0.00,,,0.01,,2013-01-01 13:22:00,
2013-01-01 08:33:00,56.0,54.0,30.14,SSE,149,0.0,0.0,94,0.00,,,0.01,,2013-01-01 13:33:00,
2013-01-01 08:43:00,56.0,54.0,30.14,SSE,149,0.0,0.0,94,0.00,,,0.01,,2013-01-01 13:43:00,
2013-01-01 08:53:00,57.0,56.0,30.13,SSE,149,0.0,2.0,95,0.00,,,0.01,,2013-01-01 13:53:00,
2013-01-01 09:02:00,58.0,57.0,30.13,East,95,0.0,2.0,95,0.00,,,0.01,,2013-01-01 14:02:00,
2013-01-01 09:12:00,58.0,57.0,30.13,East,95,0.0,2.0,95,0.00,,,0.01,,2013-01-01 14:12:00,
2013-01-01 09:22:00,60.0,58.0,30.13,ESE,116,1.0,2.0,94,0.00,,,0.01,,2013-01-01 14:22:00,
2013-01-01 09:32:00,62.0,60.0,30.14,East,99,0.0,3.0,92,0.00,,,0.01,,2013-01-01 14:32:00,
2013-01-01 09:42:00,62.0,60.0,30.14,East,99,0.0,3.0,92,0.00,,,0.01,,2013-01-01 14:42:00,
2013-01-01 09:53:00,64.0,60.0,30.14,ESE,123,2.0,5.0,86,0.00,,,0.01,,2013-01-01 14:53:00,
2013-01-01 10:03:00,67.0,61.0,30.14,SSE,167,2.0,5.0,82,0.00,,,0.01,,2013-01-01 15:03:00,
2013-01-01 10:12:00,69.0,61.0,30.14,SSE,167,2.0,5.0,77,0.00,,,0.01,,2013-01-01 15:12:00,
2013-01-01 10:22:00,69.0,61.0,30.14,SSE,167,2.0,5.0,77,0.00,,,0.01,,2013-01-01 15:22:00,
2013-01-01 10:33:00,70.0,61.0,30.14,SE,126,2.0,5.0,73,0.00,,,0.01,,2013-01-01 15:33:00,
2013-01-01 10:42:00,70.0,61.0,30.14,SE,126,2.0,5.0,73,0.00,,,0.01,,2013-01-01 15:42:00,
2013-01-01 10:53:00,72.0,62.0,30.13,South,187,3.0,8.0,70,0.00,,,0.01,,2013-01-01 15:53:00,
2013-01-01 11:02:00,72.0,61.0,30.13,SSE,150,3.0,9.0,68,0.00,,,0.01,,2013-01-01 16:02:00,
2013-01-01 11:12:00,72.0,61.0,30.13,SSE,150,3.0,9.0,68,0.00,,,0.01,,2013-01-01 16:12:00,
2013-01-01 11:22:00,73.0,61.0,30.12,South,175,4.0,12.0,66,0.00,,,0.01,,2013-01-01 16:22:00,
2013-01-01 11:33:00,74.0,61.0,30.11,South,176,4.0,7.0,65,0.00,,,0.01,,2013-01-01 16:33:00,
2013-01-01 11:42:00,74.0,61.0,30.11,South,176,4.0,7.0,65,0.00,,,0.01,,2013-01-01 16:42:00,
2013-01-01 11:53:00,75.0,61.0,30.11,South,190,4.0,10.0,62,0.00,,,0.01,,2013-01-01 16:53:00,
2013-01-01 12:02:00,74.0,60.0,30.11,SSW,206,2.0,10.0,62,0.00,,,0.01,,2013-01-01 17:02:00,
2013-01-01 12:12:00,74.0,60.0,30.11,SSW,206,2.0,10.0,62,0.00,,,0.01,,2013-01-01 17:12:00,
2013-01-01 12:22:00,74.0,60.0,30.10,South,186,5.0,12.0,61,0.00,,,0.01,,2013-01-01 17:22:00,
2013-01-01 12:33:00,75.0,60.0,30.09,SSE,150,7.0,13.0,60,0.00,,,0.01,,2013-01-01 17:33:00,
2013-01-01 12:43:00,75.0,60.0,30.09,SSE,150,7.0,13.0,60,0.00,,,0.01,,2013-01-01 17:43:00,
2013-01-01 12:53:00,75.0,61.0,30.08,SW,223,5.0,16.0,61,0.00,,,0.01,,2013-01-01 17:53:00,
2013-01-01 13:03:00,76.0,61.0,30.07,South,191,7.0,14.0,59,0.00,,,0.01,,2013-01-01 18:03:00,
2013-01-01 13:12:00,76.0,61.0,30.07,South,191,7.0,14.0,59,0.00,,,0.01,,2013-01-01 18:12:00,
2013-01-01 13:23:00,76.0,60.0,30.07,SSW,204,5.0,11.0,58,0.00,,,0.01,,2013-01-01 18:23:00,
2013-01-01 13:33:00,75.0,59.0,30.06,SW,216,8.0,16.0,58,0.00,,,0.01,,2013-01-01 18:33:00,
2013-01-01 13:42:00,75.0,59.0,30.06,SW,216,8.0,16.0,58,0.00,,,0.01,,2013-01-01 18:42:00,
2013-01-01 13:53:00,75.0,59.0,30.06,SW,216,8.0,16.0,58,0.00,,,0.01,,2013-01-01 18:53:00,
2013-01-01 14:02:00,76.0,60.0,30.05,SSW,194,4.0,11.0,58,0.00,,,0.01,,2013-01-01 19:02:00,
2013-01-01 14:12:00,76.0,60.0,30.05,SSW,194,4.0,11.0,58,0.00,,,0.01,,2013-01-01 19:12:00,
2013-01-01 14:22:00,76.0,61.0,30.05,SSW,208,6.0,14.0,59,0.00,,,0.01,,2013-01-01 19:22:00,
2013-01-01 14:33:00,75.0,60.0,30.04,South,175,8.0,12.0,60,0.00,,,0.01,,2013-01-01 19:33:00,
2013-01-01 14:42:00,75.0,60.0,30.04,South,175,8.0,12.0,60,0.00,,,0.01,,2013-01-01 19:42:00,
2013-01-01 14:53:00,75.0,61.0,30.03,SSW,213,4.0,12.0,61,0.00,,,0.01,,2013-01-01 19:53:00,
2013-01-01 15:02:00,76.0,61.0,30.03,SSW,196,3.0,10.0,59,0.00,,,0.01,,2013-01-01 20:02:00,
2013-01-01 15:12:00,76.0,61.0,30.03,SSW,196,3.0,10.0,59,0.00,,,0.01,,2013-01-01 20:12:00,
2013-01-01 15:23:00,77.0,61.0,30.02,South,187,5.0,9.0,57,0.00,,,0.01,,2013-01-01 20:23:00,
2013-01-01 15:32:00,77.0,61.0,30.02,ESE,120,5.0,11.0,57,0.00,,,0.01,,2013-01-01 20:32:00,
2013-01-01 15:42:00,77.0,61.0,30.02,ESE,120,5.0,11.0,57,0.00,,,0.01,,2013-01-01 20:42:00,
2013-01-01 15:53:00,77.0,62.0,30.02,SSW,194,3.0,11.0,59,0.00,,,0.01,,2013-01-01 20:53:00,
2013-01-01 16:03:00,77.0,61.0,30.02,SSW,209,4.0,10.0,58,0.00,,,0.01,,2013-01-01 21:03:00,
2013-01-01 16:13:00,76.0,61.0,30.03,SW,215,4.0,10.0,59,0.00,,,0.01,,2013-01-01 21:13:00,
2013-01-01 16:22:00,76.0,61.0,30.03,SW,215,4.0,10.0,59,0.00,,,0.01,,2013-01-01 21:22:00,
2013-01-01 16:33:00,76.0,61.0,30.03,ESE,106,4.0,8.0,59,0.00,,,0.01,,2013-01-01 21:33:00,
2013-01-01 16:42:00,76.0,61.0,30.03,ESE,106,4.0,8.0,59,0.00,,,0.01,,2013-01-01 21:42:00,
2013-01-01 16:53:00,76.0,61.0,30.03,East,97,2.0,6.0,59,0.00,,,0.01,,2013-01-01 21:53:00,
2013-01-01 17:03:00,76.0,61.0,30.03,SSW,203,4.0,7.0,59,0.00,,,0.01,,2013-01-01 22:03:00,
2013-01-01 17:12:00,76.0,61.0,30.03,SSW,203,4.0,7.0,59,0.00,,,0.01,,2013-01-01 22:12:00,
2013-01-01 17:22:00,76.0,62.0,30.03,South,180,1.0,8.0,61,0.00,,,0.01,,2013-01-01 22:22:00,
2013-01-01 17:33:00,75.0,61.0,30.03,SSW,202,1.0,5.0,62,0.00,,,0.01,,2013-01-01 22:33:00,
2013-01-01 17:42:00,75.0,61.0,30.03,SSW,202,1.0,5.0,62,0.00,,,0.01,,2013-01-01 22:42:00,
2013-01-01 17:53:00,74.0,61.0,30.03,South,182,0.0,4.0,64,0.00,,,0.01,,2013-01-01 22:53:00,
2013-01-01 18:03:00,73.0,61.0,30.03,SSW,202,0.0,3.0,65,0.00,,,0.01,,2013-01-01 23:03:00,
2013-01-01 18:12:00,73.0,61.0,30.03,SSW,202,0.0,3.0,65,0.00,,,0.01,,2013-01-01 23:12:00,
2013-01-01 18:22:00,72.0,60.0,30.03,SSW,202,0.0,1.0,66,0.00,,,0.01,,2013-01-01 23:22:00,
2013-01-01 18:32:00,72.0,61.0,30.03,SSW,202,0.0,0.0,68,0.00,,,0.01,,2013-01-01 23:32:00,
2013-01-01 18:42:00,72.0,61.0,30.03,SSW,202,0.0,0.0,68,0.00,,,0.01,,2013-01-01 23:42:00,
2013-01-01 18:53:00,70.0,60.0,30.03,SSW,202,0.0,0.0,70,0.00,,,0.01,,2013-01-01 23:53:00,
2013-01-01 19:03:00,69.0,60.0,30.03,SSW,202,0.0,0.0,74,0.00,,,0.01,,2013-01-02 00:03:00,
2013-01-01 19:12:00,69.0,60.0,30.03,SSW,202,0.0,0.0,74,0.00,,,0.01,,2013-01-02 00:12:00,
2013-01-01 19:22:00,68.0,60.0,30.03,SSW,202,0.0,0.0,76,0.00,,,0.01,,2013-01-02 00:22:00,
2013-01-01 19:32:00,67.0,60.0,30.03,SSW,202,0.0,0.0,78,0.00,,,0.01,,2013-01-02 00:32:00,
2013-01-01 19:42:00,67.0,60.0,30.03,SSW,202,0.0,0.0,78,0.00,,,0.01,,2013-01-02 00:42:00,
2013-01-01 19:53:00,66.0,60.0,30.03,SSW,202,0.0,0.0,81,0.00,,,0.01,,2013-01-02 00:53:00,
2013-01-01 20:02:00,65.0,59.0,30.04,SSW,202,0.0,0.0,82,0.00,,,0.01,,2013-01-02 01:02:00,
2013-01-01 20:12:00,65.0,59.0,30.04,SSW,202,0.0,0.0,82,0.00,,,0.01,,2013-01-02 01:12:00,
2013-01-01 20:22:00,65.0,60.0,30.04,SSW,202,0.0,0.0,84,0.00,,,0.01,,2013-01-02 01:22:00,
2013-01-01 20:32:00,64.0,60.0,30.04,SSW,202,0.0,0.0,86,0.00,,,0.01,,2013-01-02 01:32:00,
2013-01-01 20:42:00,64.0,60.0,30.04,SSW,202,0.0,0.0,86,0.00,,,0.01,,2013-01-02 01:42:00,
2013-01-01 20:52:00,64.0,60.0,30.04,SSW,202,0.0,0.0,86,0.00,,,0.01,,2013-01-02 01:52:00,
2013-01-01 21:02:00,64.0,60.0,30.04,SSW,202,0.0,0.0,87,0.00,,,0.01,,2013-01-02 02:02:00,
2013-01-01 21:12:00,64.0,60.0,30.04,SSW,202,0.0,0.0,87,0.00,,,0.01,,2013-01-02 02:12:00,
2013-01-01 21:22:00,63.0,59.0,30.04,SSW,202,0.0,0.0,86,0.00,,,0.01,,2013-01-02 02:22:00,
2013-01-01 21:32:00,63.0,59.0,30.04,SSW,202,0.0,0.0,86,0.00,,,0.01,,2013-01-02 02:32:00,
2013-01-01 21:42:00,63.0,59.0,30.04,SSW,202,0.0,0.0,86,0.00,,,0.01,,2013-01-02 02:42:00,
2013-01-01 21:53:00,62.0,58.0,30.04,SSW,202,0.0,0.0,88,0.00,,,0.01,,2013-01-02 02:53:00,
2013-01-01 22:02:00,62.0,59.0,30.04,SSW,202,0.0,0.0,89,0.00,,,0.01,,2013-01-02 03:02:00,
2013-01-01 22:12:00,62.0,59.0,30.04,SSW,202,0.0,0.0,89,0.00,,,0.01,,2013-01-02 03:12:00,
2013-01-01 22:22:00,62.0,59.0,30.04,SSW,202,0.0,0.0,90,0.00,,,0.01,,2013-01-02 03:22:00,
2013-01-01 22:32:00,62.0,59.0,30.04,SSW,202,0.0,0.0,90,0.00,,,0.01,,2013-01-02 03:32:00,
2013-01-01 22:42:00,62.0,59.0,30.04,SSW,202,0.0,0.0,90,0.00,,,0.01,,2013-01-02 03:42:00,
2013-01-01 22:53:00,62.0,59.0,30.04,SSW,202,0.0,0.0,90,0.00,,,0.01,,2013-01-02 03:53:00,
2013-01-01 23:02:00,61.0,58.0,30.04,SSW,202,0.0,0.0,90,0.00,,,0.01,,2013-01-02 04:02:00,
2013-01-01 23:12:00,61.0,58.0,30.04,SSW,202,0.0,0.0,90,0.00,,,0.01,,2013-01-02 04:12:00,
2013-01-01 23:22:00,61.0,58.0,30.03,SSW,202,0.0,0.0,90,0.00,,,0.01,,2013-01-02 04:22:00,
2013-01-01 23:32:00,61.0,58.0,30.03,SSW,202,0.0,0.0,91,0.00,,,0.01,,2013-01-02 04:32:00,
2013-01-01 23:42:00,61.0,58.0,30.03,SSW,202,0.0,0.0,91,0.00,,,0.01,,2013-01-02 04:42:00,
2013-01-01 23:52:00,61.0,58.0,30.03,SSW,202,0.0,0.0,91,0.00,,,0.01,,2013-01-02 04:52:00,